Springfield, OH

1:02 AM EDT on March 23, 2017 (GMT -0400)
Springfield-Beckley Municipal

Weather History for KSGH - October, 2013

Change the Weather History Date:

Wednesday, October 23, 2013

  Actual Average (KFFO) Record (KFFO)
Temperature  
Mean Temperature 38 °F -  
Max Temperature 44 °F 60 °F 75 °F (2000)
Min Temperature 32 °F 40 °F 24 °F (1997)
Degree Days  
Heating Degree Days 27    
Moisture  
Dew Point 35 °F    
Average Humidity 90    
Maximum Humidity 100    
Minimum Humidity 66    
Precipitation  
Precipitation 0.37 in - - ()
Sea Level Pressure  
Sea Level Pressure 29.90 in    
Wind  
Wind Speed 9 mph (SSW)    
Max Wind Speed 16 mph    
Max Gust Speed 24 mph    
Visibility 5 miles    
Events Rain , Snow    
Averages and records for this station are not official NWS values.
T = Trace of Precipitation, MM = Missing Value Source: NWS Daily Summary

Daily Weather History Graph

Daily Weather History Graph

Search for Another Location

Airport or City:

Trip Planner

Search our weather history database for the weather conditions in past years. The results will help you decide how hot, cold, wet, or windy it might be!

Date:

Astronomy

Oct. 23, 2013 Rise Set
Actual Time 7:54 AM EDT 6:44 PM EDT
Civil Twilight 7:26 AM EDT 7:11 PM EDT
Nautical Twilight 6:55 AM EDT 7:43 PM EDT
Astronomical Twilight 6:23 AM EDT 8:14 PM EDT
Moon 10:14 PM EDT 12:10 PM EDT
Length of Visible Light 11h 44m
Length of Day
10h 49m
Waning Gibbous, 79% of the Moon is Illuminated
Oct 23
Waning Gibbous
Oct 26
Last Quarter
Nov 3
New
Nov 10
First Quarter
Nov 17
Full

Hourly Weather History & Observations

Time (EDT) Temp. Windchill Dew Point Humidity Pressure Visibility Wind Dir Wind Speed Gust Speed Precip Events Conditions
12:56 AM 39.9 °F 35.1 °F 37.9 °F 93% 29.86 in 7.0 mi SSE 6.9 mph - N/A   Mostly Cloudy
1:56 AM 38.8 °F 34.6 °F 37.9 °F 97% 29.85 in 6.0 mi SSE 5.8 mph - 0.00 in Rain Light Rain
2:56 AM 37.9 °F 30.9 °F 36.9 °F 96% 29.82 in 5.0 mi SSE 10.4 mph - 0.00 in Rain Light Rain
3:20 AM 37.4 °F 30.3 °F 37.4 °F 100% 29.80 in 4.0 mi SSE 10.4 mph - 0.00 in Rain Light Rain
3:29 AM 37.4 °F 30.3 °F 37.4 °F 100% 29.80 in 4.0 mi SSE 10.4 mph - 0.00 in Rain Light Rain
3:45 AM 37.4 °F 30.8 °F 37.4 °F 100% 29.80 in 3.0 mi SSE 9.2 mph - 0.01 in Rain Rain
3:56 AM 37.9 °F 31.5 °F 36.9 °F 96% 29.80 in 3.0 mi SSE 9.2 mph - 0.02 in Rain Light Rain
4:41 AM 37.4 °F 30.3 °F 37.4 °F 100% 29.78 in 4.0 mi SSE 10.4 mph - 0.05 in Rain Light Rain
4:56 AM 36.9 °F 30.1 °F 34.9 °F 93% 29.80 in 4.0 mi SSE 9.2 mph - 0.08 in Rain Rain
5:06 AM 37.4 °F 30.3 °F 35.6 °F 93% 29.79 in 4.0 mi SSE 10.4 mph - 0.01 in Rain Rain
5:47 AM 33.8 °F 29.6 °F 33.8 °F 100% 29.80 in 2.0 mi South 4.6 mph - 0.06 in Snow Light Snow
5:56 AM 32.9 °F 26.7 °F 32.9 °F 100% 29.82 in 2.0 mi SSE 6.9 mph - 0.08 in Snow Light Snow
6:23 AM 33.8 °F 28.6 °F 33.8 °F 100% 29.80 in 2.0 mi South 5.8 mph - 0.06 in Snow Light Snow
6:56 AM 32.9 °F 27.5 °F 32.9 °F 100% 29.82 in 2.5 mi South 5.8 mph - 0.12 in   Overcast
7:19 AM 33.8 °F 28.6 °F 33.8 °F 100% 29.81 in 2.5 mi South 5.8 mph - 0.02 in Snow Light Snow
7:38 AM 33.8 °F 27.7 °F 33.8 °F 100% 29.82 in 1.5 mi South 6.9 mph - 0.03 in Snow Light Snow
7:56 AM 32.9 °F 25.9 °F 32.9 °F 100% 29.84 in 1.8 mi South 8.1 mph - 0.03 in Snow Light Snow
8:17 AM 33.8 °F 28.6 °F 33.8 °F 100% 29.83 in 2.5 mi SSE 5.8 mph - 0.01 in Snow Light Snow
8:56 AM 32.9 °F 26.7 °F 32.9 °F 100% 29.87 in 3.0 mi South 6.9 mph - 0.02 in Snow Light Snow
9:56 AM 34.9 °F 28.3 °F 34.9 °F 100% 29.89 in 5.0 mi South 8.1 mph - 0.00 in Rain Light Rain
10:56 AM 38.8 °F 32.1 °F 36.9 °F 93% 29.90 in 6.0 mi SSE 10.4 mph - 0.00 in   Mostly Cloudy
11:15 AM 39.2 °F 32.0 °F 37.4 °F 93% 29.89 in 6.0 mi South 11.5 mph - N/A   Mostly Cloudy
11:22 AM 39.2 °F 32.0 °F 35.6 °F 87% 29.90 in 5.0 mi NW 11.5 mph - N/A   Mostly Cloudy
11:56 AM 39.9 °F 32.9 °F 36.0 °F 86% 29.93 in 6.0 mi NW 11.5 mph - N/A   Overcast
12:08 PM 39.2 °F 31.2 °F 35.6 °F 87% 29.92 in 6.0 mi NW 13.8 mph - N/A   Overcast
12:39 PM 39.2 °F 31.2 °F 35.6 °F 87% 29.93 in 5.0 mi NW 13.8 mph - N/A   Haze
12:56 PM 39.9 °F 33.9 °F 36.0 °F 86% 29.95 in 5.0 mi WNW 9.2 mph 18.4 mph N/A   Overcast
1:56 PM 41.0 °F 34.3 °F 34.9 °F 79% 29.95 in 6.0 mi West 11.5 mph - N/A   Haze
2:56 PM 43.9 °F 36.5 °F 34.9 °F 71% 29.95 in 7.0 mi West 16.1 mph 23.0 mph N/A   Mostly Cloudy
3:14 PM 44.6 °F 38.8 °F 33.8 °F 66% 29.93 in 7.0 mi West 11.5 mph 20.7 mph N/A   Scattered Clouds
3:24 PM 44.6 °F 37.8 °F 33.8 °F 66% 29.94 in 7.0 mi West 15.0 mph 24.2 mph N/A   Mostly Cloudy
3:32 PM 42.8 °F 35.8 °F 33.8 °F 70% 29.94 in 7.0 mi West 13.8 mph - N/A   Mostly Cloudy
3:56 PM 43.9 °F 38.3 °F 34.0 °F 68% 29.96 in 7.0 mi WSW 10.4 mph 19.6 mph N/A   Mostly Cloudy
4:56 PM 41.9 °F 34.3 °F 36.0 °F 79% 29.99 in 2.5 mi West 15.0 mph 24.2 mph 0.01 in Rain Rain
5:00 PM 39.2 °F 33.6 °F 35.6 °F 87% 29.96 in 1.5 mi SW 8.1 mph 24.2 mph 0.00 in Rain Light Rain
5:06 PM 37.4 °F 30.8 °F 35.6 °F 93% 29.96 in 2.5 mi SW 9.2 mph - 0.01 in Rain Heavy Rain
5:13 PM 37.4 °F 32.8 °F 35.6 °F 93% 29.96 in 8.0 mi SW 5.8 mph - 0.01 in   Mostly Cloudy
5:56 PM 38.8 °F 32.1 °F 34.9 °F 86% 30.00 in 4.0 mi WSW 10.4 mph 19.6 mph 0.01 in Rain Light Rain
6:04 PM 39.2 °F 33.0 °F 33.8 °F 81% 29.97 in 7.0 mi West 9.2 mph - 0.00 in Rain Light Rain
6:56 PM 36.9 °F 33.1 °F 34.9 °F 93% 30.01 in 9.0 mi SW 4.6 mph - 0.00 in   Scattered Clouds
7:56 PM 34.9 °F 30.8 °F 32.9 °F 92% 30.03 in 9.0 mi SSW 4.6 mph - N/A   Clear
8:56 PM 36.0 °F 30.3 °F 34.9 °F 96% 30.04 in 9.0 mi WSW 6.9 mph - N/A   Overcast
9:56 PM 37.9 °F 33.5 °F 32.9 °F 82% 30.04 in 9.0 mi WSW 5.8 mph - N/A   Overcast
10:56 PM 36.9 °F 32.2 °F 32.0 °F 83% 30.05 in 9.0 mi WSW 5.8 mph - N/A   Overcast
11:56 PM 37.9 °F 34.4 °F 32.9 °F 82% 30.04 in 9.0 mi SW 4.6 mph - N/A   Overcast